Regional Weather Roundup
Issued by NWS

Home | Current Version | Previous Version | Text Only | Print | Product List | Glossary On
Versions: 1 2 3 4 5 6 7 8 9 10 11 12 13 14 15 16 17 18 19 20 21 22 23 24 25 26 27 28 29 30 31 32 33 34 35 36 37 38 39 40 41 42 43 44 45 46 47 48 49 50
000
ASUS43 KMKX 300320
RWRWI

WISCONSIN REGIONAL WEATHER ROUNDUP
NATIONAL WEATHER SERVICE MILWAUKEE/SULLIVAN WI
900 PM CST THU JAN 29 2015

NOTE: "FAIR" INDICATES FEW OR NO CLOUDS BELOW 12,000 FEET WITH NO
SIGNIFICANT WEATHER AND/OR OBSTRUCTIONS TO VISIBILITY.

WIZ001-002-006>008-014>016-023>028-300400-
NORTHWEST WISCONSIN

CITY           SKY/WX    TMP DP  RH WIND       PRES   REMARKS
SUPERIOR ARPT  PTCLDY    10   2  69 N13       30.50S WCI  -5
ASHLAND        MOCLDY    16   7  67 NW8       30.44R WCI   5
HAYWARD        CLOUDY    12   3  67 MISG      30.43R
SIREN          CLEAR     13   4  68 N10G17    30.48R WCI   0
CUMBERLAND     MOCLDY    14   5  67 NW14G20   30.42R WCI  -1
RICE LAKE      CLOUDY    16   7  68 NW9       30.45R WCI   4
CHETEK         PTCLDY    15   6  67 NW7       30.43R WCI   5
LADYSMITH      CLOUDY    17   7  65 NW18      30.41R WCI   1
EAU CLAIRE     MOCLDY    19   7  59 N9        30.42R WCI   8
MENOMONIE      PTCLDY    19   8  63 NW10      30.44R WCI   7
NEW RICHMOND   CLEAR     15   7  71 NW10      30.47R WCI   2
OSCEOLA        CLEAR     16   7  68 NW6       30.51R WCI   7
$$

WIZ003>005-009-010-017-018-300400-
NORTH CENTRAL WISCONSIN

CITY           SKY/WX    TMP DP  RH WIND       PRES   REMARKS
MANITOWISH WTR LGT SNOW  15   8  74 N13G21    30.30R WCI   0
ARBOR VITAE    CLOUDY    17  10  72 N15G24    30.29R WCI   2
WOODRUFF       CLOUDY    17  10  72 N15G24    30.29R WCI   2
RHINELANDER    FLURRIES  16   7  67 NW12G23   30.28R WCI   3
EAGLE RIVER    LGT SNOW  16  10  78 N9G16     30.27R WCI   4
LAND O LAKES   CLOUDY    15   9  76 N13G18    30.28R WCI   2
PHILLIPS       LGT SNOW  15   9  76 N7G16     30.33R WCI   5
TOMAHAWK       CLOUDY    17  11  76 N10G18    30.31R WCI   5
MEDFORD        CLOUDY    18   9  69 N17G24    30.31R WCI   2
MERRILL        CLOUDY    19   7  60 N14G22    30.31R WCI   6
$$

WIZ029-030-035-036-043>047-300400-
CENTRAL WISCONSIN

CITY           SKY/WX    TMP DP  RH WIND       PRES   REMARKS
WAUSAU         LGT SNOW  20  14  77 NW12      30.29R WCI   8
MOSINEE        CLOUDY    21  14  73 NW16G24   30.31R WCI   7
MARSHFIELD     CLOUDY    21  10  62 NW21G28   30.32R WCI   5
STEVENS POINT  CLOUDY    22  11  62 NW10      30.30R WCI  11
WAUPACA        CLOUDY    27  10  49 N13G23    30.31R WCI  16
WAUTOMA        FLURRIES  26  15  63 N14G21    30.31R WCI  14
WISC RAPIDS    CLOUDY    23  13  65 NW13G22   30.33R WCI  11
CAMP DOUGLAS   FLURRIES  25  19  80 NW14G23   30.33R WCI  13
$$

WIZ011>013-019>022-031-037>040-048>050-300400-
NORTHEAST WISCONSIN

CITY           SKY/WX    TMP DP  RH WIND       PRES   REMARKS
ANTIGO         CLOUDY    18  10  72 NW14G21   30.27R WCI   4
SHAWANO        CLOUDY    25  14  61 N8        30.30R WCI  17
OCONTO         CLOUDY    23  10  59 MISG      30.29R
STURGEON BAY   PTCLDY    19   9  63 N16       30.29R WCI   5
GREEN BAY      CLOUDY    24   9  52 N21G32    30.29R WCI   9
MANITOWOC      MOCLDY    24  14  65 N15G26    30.27R WCI  11
APPLETON       CLOUDY    25   9  50 N18G30    30.29R WCI  11
CLINTONVILLE   CLOUDY    27  12  54 NW13      30.30R WCI  16
OSHKOSH        CLOUDY    25  12  58 N18G25    30.28R WCI  11
$$

WIZ032>034-041-042-053>061-300400-
SOUTHWEST WISCONSIN

CITY           SKY/WX    TMP DP  RH WIND       PRES   REMARKS
LA CROSSE      CLOUDY    26  14  60 NW17G28   30.40R WCI  13
SPARTA         CLOUDY    24  12  58 NW17      30.39R WCI  11
VIROQUA        MOCLDY    24  13  63 N17       30.33R WCI  11
BOSCOBEL       CLOUDY    29  14  53 NW13      30.37R WCI  19
PRAIRIE DU CHI MOCLDY    28  14  55 NW13G22   30.38R WCI  18
PLATTEVILLE    MOCLDY    28  17  65 NW18G26   30.32R WCI  15
$$

WIZ056-057-062-063-064-067-068-300400-
SOUTH CENTRAL WISCONSIN

CITY           SKY/WX    TMP DP  RH WIND       PRES   REMARKS
REEDSBURG      FLURRIES  27  17  64 NW16G24   30.31R WCI  15
BARABOO/DELLS  CLOUDY    28  16  60 N10G18    30.30R WCI  18
LONE ROCK      CLOUDY    30  16  56 N15       30.34R WCI  19
MINERAL POINT  CLOUDY    30  18  59 NW14G23   30.30R WCI  20
MADISON        FLURRIES  29  19  66 N10       30.28R WCI  20
MIDDLETON      CLOUDY    31  18  59 NW13G18   30.29R WCI  21
WATERTOWN      FLURRIES  29  20  67 NW14      30.26R WCI  19
MONROE         CLOUDY    30  19  64 NW12G24   30.27R WCI  21
JANESVILLE     CLOUDY    32  19  59 NW16G22   30.27R WCI  21
$$

WIZ051-052-058>065-066-070>072-300400-
SOUTHEAST WISCONSIN

CITY           SKY/WX    TMP DP  RH WIND       PRES   REMARKS
MILWAUKEE      FLURRIES  31  17  56 N20G26    30.23R WCI  19
WAUKESHA       FLURRIES  28  19  69 N14       30.25R WCI  17
MILWAUKEE/TIMM CLOUDY    30  18  59 N20G25    30.25R WCI  18
RACINE         CLOUDY    32  18  56 N14G22    30.24R WCI  22
BURLINGTON     CLOUDY    30  19  62 N18G25    30.24R WCI  18
KENOSHA        CLOUDY    33  19  56 NW17G25   30.22R WCI  22
FOND DU LAC    CLOUDY    26  12  55 N17G23    30.28R WCI  13
SHEBOYGAN      CLOUDY    26  15  63 N17       30.25R WCI  13
WEST BEND      CLOUDY    28  12  50 N13G28    30.25R WCI  18
JUNEAU         FLURRIES  27  20  75 N20G29    30.27R WCI  13
$$

LSZ147-162-300400-
LAKE SUPERIOR

STATION/POSITION TIME  TEMP    WIND        PRES    WAVE
                       AIR SEA DIR/SP/G            HT/PER
                 (UTC) (F)     (DEG/KT/KT) (MB)    (FT/S)
DEVILS ISLAND    0300   15     330/ 18/ 22 1032.8R
PORT WING        0200   18     320/ 19/ 22 1031.2R
SAXON HARBOR     0200   21     320/ 19/ 22 1029.5R
$$

LMZ867-665-643>646-300400-
LAKE MICHIGAN

STATION/POSITION TIME  TEMP    WIND        PRES    WAVE
                       AIR SEA DIR/SP/G            HT/PER
                 (UTC) (F)     (DEG/KT/KT) (MB)    (FT/S)
NORTHPORT PIER   0306   20     330/ 25     1024.7R
SISTER BAY       0213   19      20/ 25/ 32   N/A
KEWAUNEE LAKESHO 0200   23     340/ 14/ 24 1022.9R
SHEBOYGAN LAKESH 0300   27     340/ 21/ 28 1025.8R
PORT WASHINGTON  0240   30     350/ 10/ 19 1024.7R
MILWAUKEE LAKESH 0300   31     340/ 15/ 19   N/A
KENOSHA   LAKESH 0300   33     350/ 19/ 25 1023.4R
$$

TC  - TEMPERATURE IN CELSIUS
VSB - VISIBILITY IN STATUTE MILES
WCI - WIND CHILL INDEX
HX  - HEAT INDEX



USA.gov is the U.S. government's official web portal to all federal, state and local government web resources and services.